Regional Weather Roundup
Issued by NWS

Home | Current Version | Previous Version | Text Only | Print | Product List | Glossary Off
Versions: 1 2 3 4 5 6 7 8 9 10 11 12 13 14 15 16 17 18 19 20 21 22 23 24 25 26 27 28 29 30 31 32 33 34 35 36 37 38 39 40 41 42 43 44 45 46 47 48 49 50

000
ASUS45 KABQ 010210
RWRNM
NEW MEXICO REGIONAL WEATHER ROUNDUP
NATIONAL WEATHER SERVICE ALBUQUERQUE NM
800 PM MDT THU JUN 30 2016

NOTE: "FAIR" MEANS FEW OR NO CLOUDS BELOW 12,000 FEET AGL WITH NO
       SIGNIFICANT WEATHER OR OBSTRUCTIONS TO VISION.

      THIS PRODUCT IS RELEASED AS TWO VERSIONS.  ONE VERSION NEAR
      THE TOP OF THE HOUR CONTAINING PRELIMINARY DATA FROM ALBUQUERQUE
      AND OTHER STATIONS.  A FINAL VERSION WITH ADDITIONAL DATA IS
      ISSUED ABOUT 10 MINUTES AFTER THE HOUR.

NMZ501-503-504-510>518-010300-
NORTHWEST PLATEAU/NORTHCENTRAL MOUNTAINS

CITY           SKY/WX    TMP DP  RH WIND       PRES   REMARKS
FARMINGTON     FAIR      79  44  28 W5        30.11R
LOS ALAMOS     FAIR      72  45  37 N14G21    30.28R
SANTA FE       MOCLDY    75  45  34 S9G21     30.19R
TAOS           FAIR      64  48  55 N8        30.29R
ANGEL FIRE     CLOUDY    62  50  65 S5        30.39R

$$
NMZ402-403-502-505>509-010300-
WESTCENTRAL MOUNTAINS/SOUTHWEST MOUNTAINS

CITY           SKY/WX    TMP DP  RH WIND       PRES   REMARKS
GALLUP         CLOUDY    69  51  52 W8        30.24R
SILVER CITY    FAIR      71  55  56 NW13      30.16R

$$
NMZ407-409-411-412-010300-
SOUTHERN DESERTS

CITY           SKY/WX    TMP DP  RH WIND       PRES   REMARKS
LORDSBURG      MOCLDY    68  63  83 NW8       30.08S
DEMING         FAIR      75  57  53 W9        30.08R
LAS CRUCES     FAIR      79  55  43 W17G31    30.05R
HOLLOMAN AFB   FAIR      89  42  18 S12       30.00R
ALAMOGORDO     FAIR      86  39  19 S13G21    30.03R
T OR C         FAIR      88  41  19 S12       30.04R

$$
NMZ519>523-010300-
CENTRAL VALLEYS/CENTRAL HIGHLANDS

CITY           SKY/WX    TMP DP  RH WIND       PRES   REMARKS
ALBUQUERQUE    MOCLDY    81  51  35 SW14      30.11R
DOUBLE EAGLE   MOCLDY    79  52  38 SW22G33   30.15R
CLINES CORNERS MOCLDY    67  50  54 NE8       30.25R
BELEN          FAIR      79  46  31 NW14G20   30.09S
SOCORRO        FAIR      87  36  16 S7        30.05S

$$
NMZ524>526-539-540-010300-
SOUTHCENTRAL MOUNTAINS

CITY           SKY/WX    TMP DP  RH WIND       PRES   REMARKS
RUIDOSO          N/A     75  39  27 SE13      30.26R

$$
NMZ527>531-010300-
NORTHEAST HIGHLANDS/NORTHEAST PLAINS

CITY           SKY/WX    TMP DP  RH WIND       PRES   REMARKS
LAS VEGAS      CLOUDY    64  54  69 W8        30.26F
RATON          FAIR      67  56  67 SW7       30.22R
CLAYTON        FAIR      75  57  53 W5        30.12R

$$
NMZ532>537-010300-
EASTCENTRAL PLAINS

CITY           SKY/WX    TMP DP  RH WIND       PRES   REMARKS
TUCUMCARI      FAIR      74  56  53 SE8       30.05R
CANNON AFB     FAIR      76  58  52 SE21G26   30.07S
CLOVIS AIRPORT FAIR      70  61  73 SE17      30.06F

$$
NMZ028-029-538-010300-
SOUTHEAST PLAINS

CITY           SKY/WX    TMP DP  RH WIND       PRES   REMARKS
ROSWELL        FAIR      91  44  19 S16       30.00R
ARTESIA        FAIR      90  50  25 S15       30.01R
CARLSBAD       FAIR      89  49  25 SE10      29.98R
HOBBS          FAIR      86  52  30 SE13      30.06R


$$




USA.gov is the U.S. government's official web portal to all federal, state and local government web resources and services.